カタログに戻る

STARLINK-34180

運用中通信VLEO
NORAD 64081·PAYLOAD·🇺🇸 United States

打ち上げ May 21, 2025 から Cape Canaveral Space Force Station

Loading…

次のパス (今後24時間)

TLE

最新Source: CelesTrak SupGP

元期: Sep 14, 2026, 21:01 UTC

1 64081C 25107T   26257.87618056  .00036291  00000+0  13143-2 0  2578
2 64081  43.0016 213.2218 0001392 261.7365  73.0412 15.27563949    18

AllMySatでSTARLINK-34180をリアルタイム追跡

Download on the App Store